[[{"header":{"parameterUnit":"m.s-1","parameterCategory":1,"la1":30.2991,"la2":30.254,"lo1":-89.0895,"lo2":-89.0444,"dy":0.0017,"dx":0.0017,"nx":28,"ny":28,"refTime":"2025-07-04T03:00:00:Z","depth":0,"parameterNumber":2,"parameterNumberName":"U-component_of_WINDS"},"data":[0,0,0,0,0,0,0,0,0,0,0,0,0,0,0,0,0,0,0,0,0,0,0,0,0,0,0,0,0,0,0,0,0,0,0,0,0,0,0,0,0,0,0,0,0,0,0,0,0,0,0,0,0,0,0,0,0,0,-1.2554,-1.2555,0,-1.2643,-1.2644,-1.2645,-1.2667,-1.2667,-1.2666,-1.2665,-1.2765,-1.2768,-1.2771,0,0,0,0,0,0,0,0,0,0,0,0,0,-1.2409,-1.2411,-1.2554,-1.2555,-1.2556,-1.2643,-1.2644,-1.2646,-1.2667,-1.2667,-1.2666,-1.2665,-1.2764,-1.2768,-1.2772,0,0,0,0,0,0,0,0,0,0,0,0,0,-1.2483,-1.2412,-1.2554,-1.2577,-1.258,-1.2643,-1.2645,-1.2646,-1.2667,-1.2667,-1.2666,-1.2665,-1.2763,-1.2767,-1.2772,-1.282,0,0,-1.2787,-1.2789,0,0,0,0,0,0,0,0,-1.2478,-1.2488,-1.2573,-1.2576,-1.2579,-1.2643,-1.263,-1.2705,-1.2668,-1.2635,-1.2665,-1.2664,-1.2726,-1.2733,-1.2753,-1.2825,-1.2829,-1.2787,-1.279,-1.2792,-1.2794,0,0,0,0,0,0,0,-1.2473,-1.2484,-1.259,-1.2574,-1.2578,-1.2586,-1.2595,-1.2644,-1.2685,-1.2637,-1.2639,-1.2649,-1.2727,-1.2748,-1.2755,-1.2831,-1.2787,-1.2791,-1.2794,-1.2796,-1.2947,-1.2948,0,0,0,0,0,0,-1.2463,-1.248,-1.2587,-1.2592,-1.2525,-1.2589,-1.2599,-1.2624,-1.2684,-1.2692,-1.265,-1.265,-1.274,-1.2749,-1.2759,-1.2819,-1.2792,-1.2797,-1.28,-1.2946,-1.2947,-1.2949,0,0,0,0,0,0,-1.246,-1.2472,-1.2583,-1.2536,-1.2551,-1.2592,-1.2619,-1.2626,-1.2646,-1.2693,-1.2701,-1.2663,-1.274,-1.2752,-1.2804,-1.2823,-1.2799,-1.2803,-1.2945,-1.2946,-1.2948,-1.2941,0,0,0,0,0,0,-1.2455,-1.2471,-1.2488,-1.2537,-1.2553,-1.2625,-1.262,-1.2628,-1.2654,-1.2654,-1.2708,-1.2716,-1.274,-1.2797,-1.2809,-1.2829,-1.2807,-1.2943,-1.2946,-1.2947,-1.294,-1.2942,-1.2944,0,0,0,0,0,-1.245,-1.2485,-1.2489,-1.2502,-1.2576,-1.2626,-1.2636,-1.2661,-1.2655,-1.2674,-1.2704,-1.2714,-1.2818,-1.2802,-1.2816,-1.2838,-1.2942,-1.2945,-1.2947,-1.2939,-1.2942,-1.2944,0,0,0,0,0,0,-1.2441,-1.2491,-1.2497,-1.2547,-1.2582,-1.263,-1.2654,-1.2664,-1.2703,-1.2703,-1.2734,-1.2746,-1.2796,-1.2822,-1.2803,-1.2888,-1.2881,-1.2886,-1.2869,-1.2872,-1.2874,-1.2868,-1.2811,0,0,0,0,0,-1.2444,-1.2478,-1.2522,-1.2562,-1.2579,-1.2613,-1.2636,-1.2652,-1.2691,-1.2706,-1.274,-1.2779,-1.2821,-1.2848,-1.2889,-1.2943,-1.2955,-1.2965,-1.2967,-1.2968,-1.2973,-1.3005,-1.3009,-1.2957,-1.2957,-1.2957,0,0,-1.2452,-1.2484,-1.2504,-1.2561,-1.259,-1.2627,-1.2626,-1.2666,-1.2694,-1.2713,-1.2764,-1.279,-1.2836,-1.2889,-1.2914,-1.2912,-1.299,-1.2972,-1.2972,-1.2977,-1.3008,-1.3013,-1.3017,-1.2959,-1.2958,-1.2958,0,0,-1.2486,-1.2513,-1.2549,-1.2577,-1.2619,-1.2642,-1.265,-1.2696,-1.2713,-1.2764,-1.2779,-1.2815,-1.2885,-1.2917,-1.2943,-1.2986,-1.2998,-1.2999,-1.3012,-1.3041,-1.3046,-1.3049,-1.3066,-1.3072,-1.3003,-1.3003,-1.3003,0,-1.2492,-1.2546,-1.2568,-1.2606,-1.2631,-1.2646,-1.2685,-1.2712,-1.2766,-1.2784,-1.278,-1.2868,-1.29,-1.2961,-1.2971,-1.2991,-1.3004,-1.2994,-1.3043,-1.3047,-1.3051,-1.3067,-1.3073,-1.3003,-1.3003,-1.3003,-1.3003,0,-1.2551,-1.2589,-1.2614,-1.2662,-1.269,-1.2728,-1.2758,-1.2783,-1.2796,-1.282,-1.2872,-1.291,-1.2958,-1.2974,-1.2988,-1.3037,-1.3034,-1.3036,-1.303,-1.3055,-1.3071,-1.3078,-1.3003,-1.3003,-1.3003,-1.3003,0,0,-1.2585,-1.2643,-1.2652,-1.2674,-1.272,-1.2751,-1.279,-1.2835,-1.2857,-1.2894,-1.2929,-1.2987,-1.2988,-1.3017,-1.3035,-1.306,-1.3094,-1.3059,-1.3061,-1.3066,-1.3151,-1.3151,-1.3158,-1.31,-1.3101,-1.3102,-1.3148,0,-1.2626,-1.2693,-1.2713,-1.2771,-1.2807,-1.2821,-1.2855,-1.2889,-1.2911,-1.2946,-1.2972,-1.3013,-1.3011,-1.3028,-1.3054,-1.3084,-1.3112,-1.3081,-1.3136,-1.3137,-1.3125,-1.3166,-1.3166,-1.3207,-1.3154,-1.3155,-1.3156,0,-1.2683,-1.2717,-1.2778,-1.2819,-1.2835,-1.2865,-1.2907,-1.294,-1.2978,-1.2993,-1.3023,-1.3038,-1.3082,-1.3071,-1.3132,-1.3111,-1.3134,-1.3152,-1.3154,-1.3162,-1.315,-1.3177,-1.3221,-1.3228,-1.3166,-1.3165,-1.3164,0,-1.2702,-1.2764,-1.2808,-1.2827,-1.2876,-1.2896,-1.2918,-1.2955,-1.2981,-1.3018,-1.3035,-1.3078,-1.3103,-1.3136,-1.3163,-1.3152,-1.3222,-1.3214,-1.3238,-1.3237,-1.3254,-1.3253,-1.3304,-1.3266,-1.3265,-1.3265,-1.3265,0,-1.2747,-1.2784,-1.2817,-1.2845,-1.2887,-1.291,-1.2952,-1.2975,-1.3007,-1.3041,-1.3056,-1.3088,-1.312,-1.3157,-1.3178,-1.3226,-1.3237,-1.3251,-1.3257,-1.3251,-1.3249,-1.3269,-1.3267,-1.3267,-1.3267,-1.3266,-1.3266,0,-1.2777,-1.2801,-1.285,-1.2891,-1.2902,-1.2931,-1.2968,-1.2996,-1.3017,-1.306,-1.3071,-1.3107,-1.315,-1.3179,-1.3236,-1.325,-1.3303,-1.3307,-1.3289,-1.3292,-1.3315,-1.3313,-1.3382,-1.3393,-1.3345,-1.3346,-1.3346,0,-1.2805,-1.2834,-1.2876,-1.2898,-1.2919,-1.2955,-1.298,-1.3004,-1.303,-1.3074,-1.3098,-1.3141,-1.3178,-1.3247,-1.328,-1.3323,-1.333,-1.3351,-1.3337,-1.333,-1.3332,-1.3331,-1.3334,-1.3354,-1.3354,-1.3355,-1.3355,0,-1.2853,-1.2862,-1.2896,-1.2934,-1.2963,-1.2994,-1.3026,-1.3044,-1.3074,-1.3102,-1.3145,-1.3173,-1.3229,-1.3274,-1.3319,-1.3344,-1.3356,-1.3358,-1.3367,-1.3362,-1.3351,-1.3359,-1.3297,-1.3358,-1.3357,-1.3357,-1.3357,-1.3357,-1.2884,-1.291,-1.2943,-1.2981,-1.3006,-1.3035,-1.3063,-1.3087,-1.3123,-1.3168,-1.318,-1.3226,-1.3264,-1.3326,-1.3351,-1.3389,-1.3387,-1.3398,-1.3402,-1.3405,-1.3405,-1.3343,-1.3397,-1.3397,-1.3397,-1.3397,-1.3397,0,-1.2934,-1.2955,-1.2989,-1.3031,-1.3061,-1.3064,-1.31,-1.3125,-1.3164,-1.3197,-1.3231,-1.3281,-1.3323,-1.3358,-1.3402,-1.3425,-1.3431,-1.3436,-1.3436,-1.3442,-1.3404,-1.3393,-1.343,-1.343,-1.343,-1.343,-1.343,-1.343,-1.2963,-1.3007,-1.302,-1.3077,-1.3099,-1.3141,-1.3161,-1.3189,-1.3215,-1.3269,-1.3303,-1.3323,-1.3357,-1.3404,-1.3443,-1.3452,-1.3469,-1.3473,-1.3483,-1.3448,-1.3444,-1.3441,-1.3431,-1.3476,-1.3476,-1.3518,-1.3519,-1.3519]},{"header":{"parameterUnit":"m.s-1","parameterCategory":1,"la1":30.2991,"la2":30.254,"lo1":-89.0895,"lo2":-89.0444,"dy":0.0017,"dx":0.0017,"nx":28,"ny":28,"refTime":"2025-07-04T03:00:00:Z","depth":0,"parameterNumber":3,"parameterNumberName":"V-component_of_WINDS"},"data":[0,0,0,0,0,0,0,0,0,0,0,0,0,0,0,0,0,0,0,0,0,0,0,0,0,0,0,0,0,0,0,0,0,0,0,0,0,0,0,0,0,0,0,0,0,0,0,0,0,0,0,0,0,0,0,0,0,0,-2.3683,-2.3682,0,-2.3602,-2.3602,-2.3601,-2.3524,-2.3523,-2.3522,-2.3521,-2.3433,-2.3432,-2.343,0,0,0,0,0,0,0,0,0,0,0,0,0,-2.3766,-2.3765,-2.3683,-2.3682,-2.3681,-2.3603,-2.3601,-2.36,-2.3524,-2.3523,-2.3522,-2.3521,-2.3434,-2.3432,-2.343,0,0,0,0,0,0,0,0,0,0,0,0,0,-2.3712,-2.3765,-2.3683,-2.3634,-2.3629,-2.3603,-2.3601,-2.36,-2.3525,-2.3523,-2.3522,-2.352,-2.3434,-2.3432,-2.343,-2.3445,0,0,-2.3423,-2.3422,0,0,0,0,0,0,0,0,-2.3716,-2.3709,-2.3642,-2.3637,-2.3631,-2.3572,-2.3598,-2.3548,-2.3525,-2.3564,-2.3521,-2.352,-2.348,-2.3474,-2.3462,-2.3441,-2.3437,-2.3423,-2.3422,-2.3421,-2.342,0,0,0,0,0,0,0,-2.3719,-2.3712,-2.3651,-2.3641,-2.3635,-2.3614,-2.3605,-2.3589,-2.3531,-2.356,-2.3555,-2.3546,-2.3477,-2.3464,-2.3459,-2.3436,-2.3423,-2.3421,-2.342,-2.3419,-2.3423,-2.3424,0,0,0,0,0,0,-2.3731,-2.3716,-2.3653,-2.3649,-2.3671,-2.3614,-2.3603,-2.3592,-2.3531,-2.352,-2.3548,-2.3543,-2.3469,-2.3462,-2.3456,-2.347,-2.3421,-2.3419,-2.3418,-2.3421,-2.3423,-2.3424,0,0,0,0,0,0,-2.3734,-2.3727,-2.3657,-2.3681,-2.367,-2.3614,-2.3602,-2.3592,-2.3579,-2.3521,-2.351,-2.3546,-2.3467,-2.3459,-2.3449,-2.3465,-2.3418,-2.3416,-2.342,-2.3422,-2.3424,-2.3497,0,0,0,0,0,0,-2.3736,-2.3728,-2.3734,-2.3682,-2.3669,-2.3653,-2.3603,-2.3591,-2.3576,-2.3569,-2.3517,-2.3506,-2.3466,-2.3452,-2.3447,-2.3462,-2.3414,-2.3418,-2.3421,-2.3423,-2.3493,-2.3501,-2.3509,0,0,0,0,0,-2.374,-2.3757,-2.3735,-2.3728,-2.3676,-2.3654,-2.3647,-2.3601,-2.3578,-2.3583,-2.3546,-2.3508,-2.3465,-2.3452,-2.3445,-2.3459,-2.3417,-2.342,-2.3423,-2.3489,-2.35,-2.3509,0,0,0,0,0,0,-2.381,-2.3749,-2.3724,-2.3725,-2.3696,-2.3641,-2.3646,-2.3613,-2.3588,-2.3583,-2.3526,-2.3514,-2.351,-2.3483,-2.347,-2.347,-2.3435,-2.3437,-2.3488,-2.3498,-2.3506,-2.3512,-2.3412,0,0,0,0,0,-2.3827,-2.3815,-2.3761,-2.3767,-2.3754,-2.3703,-2.3691,-2.3659,-2.3625,-2.3612,-2.3574,-2.3541,-2.352,-2.3507,-2.3485,-2.3489,-2.3476,-2.3495,-2.3503,-2.351,-2.3512,-2.3512,-2.352,-2.3435,-2.3435,-2.3435,0,0,-2.3859,-2.3824,-2.382,-2.3781,-2.3754,-2.3742,-2.3693,-2.3682,-2.3672,-2.3609,-2.3598,-2.3569,-2.3529,-2.3526,-2.3523,-2.3503,-2.3533,-2.3514,-2.352,-2.3518,-2.3516,-2.3524,-2.3532,-2.3437,-2.3437,-2.3436,0,0,-2.3912,-2.3885,-2.3887,-2.3862,-2.3823,-2.3789,-2.379,-2.3741,-2.372,-2.3708,-2.3661,-2.3647,-2.3612,-2.3586,-2.3567,-2.3612,-2.3576,-2.3606,-2.3647,-2.3648,-2.3654,-2.366,-2.3676,-2.3682,-2.3608,-2.3608,-2.3608,0,-2.3957,-2.3939,-2.3892,-2.3885,-2.3869,-2.3813,-2.3815,-2.3792,-2.3747,-2.3736,-2.3716,-2.3671,-2.364,-2.363,-2.3642,-2.3629,-2.3627,-2.3611,-2.3658,-2.3663,-2.3667,-2.3682,-2.3688,-2.3612,-2.3612,-2.3611,-2.3611,0,-2.3996,-2.3984,-2.399,-2.3951,-2.3935,-2.3932,-2.3883,-2.3873,-2.3842,-2.381,-2.3798,-2.3759,-2.3728,-2.3723,-2.3692,-2.3709,-2.3698,-2.3669,-2.3632,-2.368,-2.3693,-2.3698,-2.3618,-2.3616,-2.3615,-2.3614,0,0,-2.4091,-2.4027,-2.403,-2.4011,-2.3965,-2.3954,-2.3948,-2.3919,-2.3911,-2.3882,-2.3875,-2.3847,-2.382,-2.38,-2.3765,-2.3766,-2.3803,-2.3735,-2.3734,-2.375,-2.3819,-2.3842,-2.385,-2.3779,-2.378,-2.3781,-2.3823,0,-2.4136,-2.4125,-2.4083,-2.4083,-2.4071,-2.4019,-2.4013,-2.3984,-2.3954,-2.3938,-2.3903,-2.3885,-2.385,-2.3838,-2.3836,-2.3799,-2.3817,-2.3796,-2.3771,-2.3771,-2.3783,-2.3856,-2.388,-2.3921,-2.3827,-2.3828,-2.3829,0,-2.4188,-2.4164,-2.4164,-2.4119,-2.4112,-2.4109,-2.4079,-2.4065,-2.403,-2.4008,-2.3986,-2.3948,-2.3937,-2.3904,-2.3888,-2.3875,-2.3862,-2.3843,-2.3843,-2.3839,-2.3803,-2.3854,-2.3933,-2.394,-2.3836,-2.3835,-2.3835,0,-2.4257,-2.4226,-2.4221,-2.4207,-2.4154,-2.4153,-2.413,-2.4094,-2.4079,-2.4053,-2.4043,-2.4015,-2.4,-2.3979,-2.3934,-2.3914,-2.3923,-2.3886,-2.3903,-2.3905,-2.3907,-2.3908,-2.3986,-2.39,-2.39,-2.39,-2.3899,0,-2.4312,-2.4314,-2.4252,-2.425,-2.425,-2.4201,-2.4202,-2.4174,-2.4143,-2.4133,-2.4085,-2.4076,-2.4018,-2.4002,-2.3966,-2.3959,-2.3952,-2.3933,-2.3923,-2.3937,-2.394,-2.3928,-2.3924,-2.3901,-2.3901,-2.39,-2.39,0,-2.439,-2.4349,-2.4341,-2.4292,-2.428,-2.4282,-2.4239,-2.4234,-2.4202,-2.419,-2.4184,-2.4132,-2.4111,-2.4065,-2.403,-2.4006,-2.4007,-2.399,-2.402,-2.4014,-2.4035,-2.4034,-2.4108,-2.4116,-2.4025,-2.4026,-2.4027,0,-2.4428,-2.4429,-2.438,-2.4371,-2.4351,-2.4337,-2.4323,-2.4275,-2.4262,-2.4222,-2.4222,-2.4197,-2.4175,-2.4144,-2.4102,-2.4076,-2.4058,-2.4086,-2.4053,-2.4067,-2.4058,-2.4059,-2.4058,-2.4093,-2.4094,-2.4095,-2.4096,0,-2.45,-2.4479,-2.4462,-2.4438,-2.4423,-2.4401,-2.4376,-2.4371,-2.4316,-2.4303,-2.4283,-2.4266,-2.4232,-2.4208,-2.4176,-2.415,-2.4114,-2.4107,-2.4109,-2.4124,-2.4141,-2.4132,-2.404,-2.4105,-2.4104,-2.4103,-2.4103,-2.4103,-2.4558,-2.4557,-2.4523,-2.4505,-2.4482,-2.446,-2.4453,-2.4421,-2.4403,-2.4374,-2.4345,-2.4328,-2.4292,-2.4245,-2.4222,-2.4206,-2.4188,-2.4191,-2.4192,-2.4194,-2.42,-2.4144,-2.42,-2.4199,-2.4199,-2.4199,-2.4199,0,-2.4627,-2.4604,-2.4588,-2.4556,-2.4542,-2.4511,-2.4482,-2.4472,-2.4457,-2.4428,-2.4408,-2.4384,-2.4361,-2.4318,-2.4291,-2.4287,-2.4269,-2.4281,-2.4281,-2.4276,-2.4218,-2.4219,-2.4296,-2.4296,-2.4296,-2.4296,-2.4296,-2.4296,-2.4662,-2.4658,-2.4634,-2.4617,-2.4593,-2.4577,-2.4563,-2.4542,-2.4519,-2.4495,-2.4477,-2.445,-2.4414,-2.4385,-2.4362,-2.435,-2.4342,-2.4359,-2.4342,-2.4289,-2.428,-2.4271,-2.4271,-2.4358,-2.4358,-2.44,-2.4401,-2.4401]}]]